SCP
0 0 0 0 -0 -0 -0 -0 0 0 0 0 0 0 -0 0 0 0 0 0 0 0 -0 0 0 0 0 0 0 0 0 0 0 0 0 0 0 0 0 0 0 0 0 0
0 0 -0 -0 -0 -0 -0 0 0 -0 0 0 0 0 0 0 -0 -0 -0 0 0 0 0 -0 0 0 0 0 0 0 0 0 0 0 0 0 0 0 0 0 0 0 0 0
-0 -0 -0 -0 -0 0 -0 0 0 0 0 -0 -0 0 0 0 0 0 0 0 -0 -0 -0 0 -0 -0 0 0 0 0 0 0 0 0 0 0 0 0 0 0 0 0 0 0
0 -0 -0 -0 -0 -0 -0 0 -0 -0 -0 -0 -0 0 0 0 0 0 0 0 -0 -0 -0 -0 -0 -0 0 0 0 0 0 0 0 0 0 0 0 0 0 0 0 0 0 0
-0 -0 -0 -0 -0 -0 -0 -0 -0 -0 -0 -0 -0 -0 0 0 0 0 0 0 -0 -0 -0 -0 -0 -0 -0 0 0 0 0 0 0 0 0 0 0 0 0 0 0 0 0 0
0 0 -0 0 -0 0 0 -0 0 0 0 -0 -0 -0 -0 0 0 0 0 -0 -0 -0 -0 -0 -0 -0 0 0 0 0 0 0 0 0 0 0 0 0 0 0 0 0 0 0
-0 0 -0 0 -0 -0 -0 -0 -0 0 0 0 0 -0 0 0 0 0 -0 -0 -0 -0 -0 -0 -0 -0 0 0 0 0 0 0 0 0 0 0 0 0 0 0 0 0 0 0
0 0 0 0 0 0 -0 -0 0 0 0 0 0 0 0 0 0 0 0 -0 -0 0 0 0 -0 -0 0 -0 0 0 0 0 0 0 0 0 0 0 0 0 0 0 0 0
0 0 0 0 0 0 0 0 0 0 0 0 0 0 0 0 0 0 0 0 0 0 0 0 0 -0 -0 -0 -0 -0 0 0 0 0 0 0 0 0 0 0 0 0 0 0
0 0 0 0 0 0 0 0 0 0 0 0 0 0 0 0 0 0 0 0 0 0 0 0 0 -0 -0 -0 0 -0 -0 0 0 0 0 0 0 0 0 0 0 0 0 0
0 0 0 0 0 0 0 0 0 0 0 0 0 0 0 0 0 0 0 0 0 0 0 0 -0 -0 -0 -0 0 0 -0 0 0 0 0 0 0 0 0 0 0 0 0 0
0 0 0 0 0 0 0 0 0 0 0 0 0 0 0 0 0 0 0 0 0 0 0 0 0 -0 -0 -0 -0 0 0 0 0 0 0 0 0 0 0 0 0 0 0 0
0 0 0 0 0 0 0 0 0 0 0 0 0 0 0 0 0 0 0 0 0 0 0 0 0 -0 -0 -0 -0 -0 0 0 0 0 0 0 0 0 0 0 0 0 0 0
0 0 0 0 0 0 0 0 0 0 0 0 0 0 0 0 0 0 0 0 0 0 0 0 0 0 -0 -0 -0 -0 -0 -0 0 0 0 0 0 0 0 0 0 0 0 0
0 0 0 0 0 0 0 0 0 0 0 0 0 0 0 0 0 0 0 0 0 0 0 0 0 0 0 -0 -0 -0 -0 -0 -0 -0 0 0 0 0 0 0 0 0 0 0
0 0 0 0 0 0 0 0 0 0 0 0 0 0 0 0 0 0 0 0 0 0 0 0 0 0 0 0 -0 -0 -0 -0 -0 -0 -0 0 0 0 0 0 0 0 0 0
0 0 0 0 0 0 0 0 0 0 0 0 0 0 0 0 0 0 0 0 0 0 0 0 0 0 0 0 0 -0 -0 -0 -0 -0 -0 -0 0 0 0 0 0 0 0 0
0 0 0 0 0 0 0 0 0 0 0 0 0 0 0 0 0 0 0 0 0 0 0 0 0 0 0 0 0 0 0 -0 -0 -0 -0 -0 -0 -0 0 0 0 0 0 0
0 0 0 0 0 0 0 0 0 0 0 0 0 0 0 0 0 0 0 0 0 0 0 0 0 0 0 0 0 0 0 0 -0 -0 -0 -0 -0 -0 -0 -0 0 0 0 0
0 0 0 0 0 0 0 0 0 0 0 0 0 0 0 0 0 0 0 0 0 0 0 0 0 0 0 0 0 0 0 0 -0 -0 -0 -0 -0 -0 -0 -0 -0 -0 0 0
0 0 0 0 0 0 0 0 0 0 0 0 0 0 0 0 0 0 0 0 0 0 0 0 0 0 0 0 0 0 0 0 0 0 -0 -0 -0 -0 -0 -0 -0 -0 -0 -0
0 0 0 0 0 0 0 0 0 0 0 0 0 0 0 0 0 0 0 0 0 0 0 0 0 0 0 0 0 0 0 0 0 0 0 -0 -0 -0 -0 -0 -0 -0 -0 -0
0 0 0 0 0 0 0 0 0 0 0 0 0 0 0 0 0 0 0 0 0 0 0 0 0 0 0 0 0 0 0 0 0 0 0 -0 -0 -0 -0 -0 -0 -0 -0 -0
0 0 0 0 0 0 0 0 0 0 0 0 0 0 0 0 0 0 0 0 0 0 0 0 0 0 0 0 0 0 0 0 0 0 -0 -0 -0 -0 -0 -0 -0 -0 -0 -0
0 0 0 0 0 0 0 0 0 0 0 0 0 0 0 0 0 0 0 0 0 0 0 0 0 0 0 0 0 0 0 0 0 0 -0 -0 -0 -0 -0 -0 -0 -0 -0 -0
0 0 0 0 0 0 0 0 0 0 0 0 0 0 0 0 0 0 0 0 0 0 0 0 0 0 0 0 0 0 0 0 0 0 0 0 -0 -0 -0 -0 -0 0 0 0
Wind_Speed_500mb
29 24 19 9 12 9 7 8 21 19 8 28 15 24 17 36 46 49 52 56 79 77 68 78 69 64 68 64 62 56 55 49 51 52 49 51 60 65 75 82 86 97 99 102
12 21 8 5 6 6 4 11 11 25 18 21 11 20 4 22 31 34 43 56 60 87 105 94 86 70 66 69 67 62 57 52 49 48 49 54 56 66 74 81 85 96 100 102
15 7 10 7 5 22 5 2 10 18 28 8 10 4 10 14 33 49 55 49 56 60 80 99 96 87 74 68 66 69 62 59 56 53 53 56 65 64 71 75 81 89 97 101
13 5 6 6 5 16 7 6 24 29 14 5 8 7 8 12 20 37 54 60 58 68 83 86 91 89 83 76 65 60 59 58 57 53 51 52 57 71 64 78 82 87 90 94
5 4 6 6 10 15 15 28 25 17 5 2 6 2 6 7 24 36 48 53 57 59 67 78 84 84 83 77 73 63 55 52 53 54 51 51 56 66 79 67 79 88 85 88
5 3 2 3 17 7 29 9 1 4 5 5 8 7 7 7 13 30 43 51 55 64 73 77 78 81 83 83 78 70 58 52 50 49 46 44 49 57 68 68 81 87 88 85
7 2 5 8 7 7 24 7 7 10 10 7 3 6 14 5 9 17 27 46 54 63 71 74 78 85 87 88 87 80 69 60 54 51 44 39 38 41 49 70 73 85 88 87
7 7 5 10 5 6 11 8 8 7 8 11 16 9 10 9 3 16 20 32 54 61 67 69 69 71 77 82 85 84 75 66 60 53 47 39 32 31 33 60 63 86 84 80
6 7 5 1 3 6 6 9 6 7 3 4 10 12 8 4 9 26 38 46 53 58 63 65 64 66 68 73 78 83 82 67 60 55 49 44 36 28 22 28 58 59 71 69
5 7 4 0 3 6 10 6 3 6 6 11 12 13 15 6 12 15 24 32 49 55 58 62 62 61 62 65 68 72 77 78 68 58 53 52 43 33 25 13 28 42 59 69
7 6 4 7 8 12 2 3 6 6 7 7 10 15 14 13 6 10 20 32 40 48 49 54 54 57 57 59 64 67 71 77 78 69 59 54 49 41 34 26 11 8 28 33
7 7 8 14 2 8 6 11 9 8 8 7 4 19 12 12 11 16 26 38 39 42 44 46 49 52 55 55 59 67 68 71 73 76 71 66 54 47 43 37 28 15 3 14
9 2 8 7 9 9 5 10 8 5 6 15 11 15 7 15 12 39 32 38 43 41 42 43 45 46 48 53 55 58 64 68 71 71 74 72 73 62 55 49 39 25 10 1
14 7 13 12 9 8 5 8 23 12 7 9 30 33 45 32 31 28 39 45 44 44 37 39 41 43 43 44 48 53 58 64 68 69 70 72 75 74 68 56 49 41 26 9
9 10 8 25 28 26 34 27 26 33 41 17 44 20 45 22 18 43 49 45 41 43 42 37 38 41 42 41 41 42 43 50 58 67 70 70 69 69 68 68 60 49 42 33
1 7 4 12 17 26 33 37 40 49 54 52 61 60 60 78 63 45 50 49 39 43 45 42 40 36 35 39 40 41 43 43 45 50 59 66 71 69 67 68 67 60 54 48
11 7 6 12 13 17 18 22 23 16 10 32 32 40 25 25 26 36 39 40 41 44 47 46 39 41 35 34 37 39 40 43 43 47 46 49 54 61 70 69 63 64 63 54
11 10 4 9 10 4 11 7 13 30 16 34 18 24 18 39 55 44 43 50 45 44 47 47 41 40 37 33 32 36 41 42 44 44 45 46 46 47 49 54 63 64 59 58
34 9 2 5 6 20 16 0 10 14 16 30 42 36 46 47 30 53 51 39 37 36 42 48 47 41 37 35 30 30 35 41 42 44 44 45 46 47 44 45 46 47 52 57
12 20 12 5 7 13 11 5 8 7 14 14 30 22 24 9 2 15 48 32 32 51 54 58 49 44 39 36 36 34 33 35 41 44 46 48 46 46 45 43 42 42 40 38
8 14 33 21 9 21 30 16 8 9 15 10 32 33 24 11 29 58 50 41 56 61 48 46 52 50 43 39 38 39 42 42 42 42 48 52 54 52 48 44 43 40 38 37
17 19 10 7 6 23 32 16 15 16 10 12 20 28 26 47 56 60 61 58 61 57 54 46 52 53 46 42 41 43 46 50 50 48 48 51 55 60 60 55 50 44 41 38
7 16 11 26 20 14 39 21 34 36 28 43 52 52 67 60 53 55 58 63 61 59 51 45 42 46 47 44 43 45 49 50 54 60 60 60 58 57 60 65 59 53 44 41
9 21 8 5 20 52 65 76 76 83 79 78 74 71 55 50 58 65 73 71 62 52 53 47 41 43 44 43 45 48 52 55 58 61 67 68 66 62 57 55 58 56 48 41
13 17 17 27 36 73 65 74 90 82 69 65 58 70 52 58 68 57 58 54 50 50 49 41 35 36 40 44 47 51 54 60 65 68 67 65 64 59 55 50 49 50 47 40
28 37 23 30 54 54 61 63 66 63 74 79 78 66 65 64 62 56 53 47 39 34 31 31 34 38 44 48 51 55 59 63 64 64 61 57 54 54 50 48 45 39 40 40
Wind_Direction_500mb
34 60 41 355 82 156 219 262 291 286 325 357 7 310 41 22 32 10 9 7 3 359 355 356 351 339 331 329 325 320 311 301 294 285 276 262 265 258 251 245 239 238 238 239
61 60 317 318 49 343 264 301 308 303 335 331 342 304 291 38 30 21 7 4 3 1 2 359 353 350 341 333 330 326 322 315 308 296 279 257 251 260 260 253 245 242 242 241
85 162 309 36 27 0 303 231 310 291 326 333 327 298 332 7 22 9 10 5 1 0 357 359 356 353 348 341 334 332 329 322 315 304 287 272 251 248 253 248 243 244 244 243
78 353 344 1 37 359 306 167 311 301 328 322 62 289 295 325 350 4 356 355 354 355 360 3 359 356 355 347 341 333 329 325 318 312 299 288 274 243 243 248 246 242 242 246
235 17 340 40 349 332 258 317 288 288 212 329 12 2 268 325 348 348 344 345 349 353 355 0 3 360 0 355 347 344 335 331 321 312 308 299 286 261 238 247 243 243 242 243
83 300 302 278 314 281 306 327 356 116 111 36 164 51 284 13 319 329 336 346 347 350 355 1 4 6 4 3 356 350 347 340 334 324 314 307 296 280 249 239 241 241 242 239
336 139 327 358 335 329 346 12 358 357 9 247 24 351 250 233 289 308 328 339 345 351 354 356 359 4 6 7 3 358 353 350 347 342 332 324 314 296 262 235 243 241 238 235
50 339 17 349 119 222 3 56 117 259 313 301 321 225 257 188 344 341 340 347 352 351 356 356 358 358 5 7 9 4 359 355 355 355 347 333 326 321 269 244 246 243 241 236
64 274 328 220 59 113 310 52 190 90 10 315 274 290 297 190 333 356 357 350 350 352 353 354 357 360 0 6 11 11 6 4 2 2 1 351 346 345 328 265 239 238 247 242
174 351 196 58 118 48 112 188 116 39 28 299 279 279 246 290 337 332 337 334 346 351 350 353 357 359 2 4 9 12 14 12 10 7 11 10 359 359 359 327 244 220 226 232
125 105 285 27 202 176 94 110 61 119 148 205 303 264 221 197 220 281 299 335 339 347 348 350 354 0 5 6 8 13 14 16 16 15 11 17 13 10 14 14 356 237 218 218
197 143 264 227 299 354 154 188 145 130 231 223 217 265 238 204 193 230 326 328 332 339 343 346 350 358 4 9 11 15 17 18 20 21 20 19 24 19 19 23 18 21 297 212
197 288 335 358 3 4 184 198 177 116 117 212 156 258 226 208 282 335 307 317 322 326 335 339 344 352 356 359 7 12 16 19 19 21 23 23 27 27 24 22 24 26 32 263
159 175 197 207 197 128 207 217 198 155 168 213 226 269 272 261 286 288 292 305 311 313 318 325 332 338 342 351 355 3 10 11 15 19 22 25 27 29 29 27 28 31 25 14
154 231 203 257 273 264 257 237 213 218 227 213 266 249 266 273 276 285 285 287 298 309 310 309 317 327 333 338 346 352 2 7 10 10 15 19 24 27 30 31 31 33 36 36
102 267 122 279 260 259 262 256 232 234 244 245 257 273 273 277 276 265 259 270 286 301 305 302 304 311 320 327 336 345 349 356 3 8 11 12 11 19 24 29 29 31 36 40
160 158 47 265 342 307 285 244 201 191 216 220 231 241 267 273 259 246 256 271 283 295 300 296 296 304 309 317 324 333 340 345 352 359 7 9 12 12 11 14 23 27 30 31
153 126 128 274 353 298 255 215 184 206 228 214 252 253 245 262 275 278 267 278 280 297 296 294 290 295 299 304 311 321 328 334 339 348 354 0 6 10 12 11 6 12 20 25
200 148 299 241 215 303 278 116 153 168 261 239 230 252 258 272 289 287 287 261 282 303 304 296 283 288 293 299 303 309 318 324 331 335 342 349 354 358 4 6 6 6 5 7
202 197 174 92 215 238 248 250 188 141 288 221 197 229 244 162 305 274 301 265 290 307 298 291 280 284 285 293 301 306 313 318 319 326 332 337 341 345 348 353 355 354 356 0
146 201 217 220 258 280 251 224 159 86 262 184 198 222 232 189 265 297 294 270 297 306 300 291 272 278 278 284 292 301 309 313 316 318 320 324 329 332 334 336 337 338 340 343
169 170 195 173 177 274 200 132 195 223 296 254 251 261 288 298 296 295 294 288 300 303 299 292 273 272 272 278 287 296 302 308 310 312 316 317 319 323 325 326 325 326 326 325
251 196 190 187 207 248 193 214 234 262 269 279 281 279 298 297 295 300 299 297 299 303 298 297 281 266 266 274 283 293 300 303 307 310 312 315 317 316 315 317 319 319 319 315
256 220 238 108 226 245 253 259 265 273 276 289 289 288 294 290 301 301 304 304 304 296 295 292 277 264 266 274 285 293 297 301 304 307 310 312 313 314 313 311 311 314 315 312
194 149 238 257 271 275 269 265 268 275 281 285 279 294 279 299 302 302 300 300 299 296 292 286 271 266 270 280 288 293 297 300 303 306 309 310 312 314 314 313 312 311 313 312
197 238 238 255 256 261 277 281 280 277 280 282 284 281 280 292 295 298 293 295 295 292 287 279 274 276 281 287 293 296 299 301 304 306 309 311 312 314 317 317 313 311 310 308
Wind_Speed_850mb
29 24 19 9 12 9 7 8 21 19 8 28 15 24 17 36 46 49 52 56 79 77 68 78 69 64 68 64 62 56 55 49 51 52 49 51 60 65 75 82 86 97 99 102
12 21 8 5 6 6 4 11 11 25 18 21 11 20 4 22 31 34 43 56 60 87 105 94 86 70 66 69 67 62 57 52 49 48 49 54 56 66 74 81 85 96 100 102
15 7 10 7 5 22 5 2 10 18 28 8 10 4 10 14 33 49 55 49 56 60 80 99 96 87 74 68 66 69 62 59 56 53 53 56 65 64 71 75 81 89 97 101
13 5 6 6 5 16 7 6 24 29 14 5 8 7 8 12 20 37 54 60 58 68 83 86 91 89 83 76 65 60 59 58 57 53 51 52 57 71 64 78 82 87 90 94
5 4 6 6 10 15 15 28 25 17 5 2 6 2 6 7 24 36 48 53 57 59 67 78 84 84 83 77 73 63 55 52 53 54 51 51 56 66 79 67 79 88 85 88
5 3 2 3 17 7 29 9 1 4 5 5 8 7 7 7 13 30 43 51 55 64 73 77 78 81 83 83 78 70 58 52 50 49 46 44 49 57 68 68 81 87 88 85
7 2 5 8 7 7 24 7 7 10 10 7 3 6 14 5 9 17 27 46 54 63 71 74 78 85 87 88 87 80 69 60 54 51 44 39 38 41 49 70 73 85 88 87
7 7 5 10 5 6 11 8 8 7 8 11 16 9 10 9 3 16 20 32 54 61 67 69 69 71 77 82 85 84 75 66 60 53 47 39 32 31 33 60 63 86 84 80
6 7 5 1 3 6 6 9 6 7 3 4 10 12 8 4 9 26 38 46 53 58 63 65 64 66 68 73 78 83 82 67 60 55 49 44 36 28 22 28 58 59 71 69
5 7 4 0 3 6 10 6 3 6 6 11 12 13 15 6 12 15 24 32 49 55 58 62 62 61 62 65 68 72 77 78 68 58 53 52 43 33 25 13 28 42 59 69
7 6 4 7 8 12 2 3 6 6 7 7 10 15 14 13 6 10 20 32 40 48 49 54 54 57 57 59 64 67 71 77 78 69 59 54 49 41 34 26 11 8 28 33
7 7 8 14 2 8 6 11 9 8 8 7 4 19 12 12 11 16 26 38 39 42 44 46 49 52 55 55 59 67 68 71 73 76 71 66 54 47 43 37 28 15 3 14
9 2 8 7 9 9 5 10 8 5 6 15 11 15 7 15 12 39 32 38 43 41 42 43 45 46 48 53 55 58 64 68 71 71 74 72 73 62 55 49 39 25 10 1
14 7 13 12 9 8 5 8 23 12 7 9 30 33 45 32 31 28 39 45 44 44 37 39 41 43 43 44 48 53 58 64 68 69 70 72 75 74 68 56 49 41 26 9
9 10 8 25 28 26 34 27 26 33 41 17 44 20 45 22 18 43 49 45 41 43 42 37 38 41 42 41 41 42 43 50 58 67 70 70 69 69 68 68 60 49 42 33
1 7 4 12 17 26 33 37 40 49 54 52 61 60 60 78 63 45 50 49 39 43 45 42 40 36 35 39 40 41 43 43 45 50 59 66 71 69 67 68 67 60 54 48
11 7 6 12 13 17 18 22 23 16 10 32 32 40 25 25 26 36 39 40 41 44 47 46 39 41 35 34 37 39 40 43 43 47 46 49 54 61 70 69 63 64 63 54
11 10 4 9 10 4 11 7 13 30 16 34 18 24 18 39 55 44 43 50 45 44 47 47 41 40 37 33 32 36 41 42 44 44 45 46 46 47 49 54 63 64 59 58
34 9 2 5 6 20 16 0 10 14 16 30 42 36 46 47 30 53 51 39 37 36 42 48 47 41 37 35 30 30 35 41 42 44 44 45 46 47 44 45 46 47 52 57
12 20 12 5 7 13 11 5 8 7 14 14 30 22 24 9 2 15 48 32 32 51 54 58 49 44 39 36 36 34 33 35 41 44 46 48 46 46 45 43 42 42 40 38
8 14 33 21 9 21 30 16 8 9 15 10 32 33 24 11 29 58 50 41 56 61 48 46 52 50 43 39 38 39 42 42 42 42 48 52 54 52 48 44 43 40 38 37
17 19 10 7 6 23 32 16 15 16 10 12 20 28 26 47 56 60 61 58 61 57 54 46 52 53 46 42 41 43 46 50 50 48 48 51 55 60 60 55 50 44 41 38
7 16 11 26 20 14 39 21 34 36 28 43 52 52 67 60 53 55 58 63 61 59 51 45 42 46 47 44 43 45 49 50 54 60 60 60 58 57 60 65 59 53 44 41
9 21 8 5 20 52 65 76 76 83 79 78 74 71 55 50 58 65 73 71 62 52 53 47 41 43 44 43 45 48 52 55 58 61 67 68 66 62 57 55 58 56 48 41
13 17 17 27 36 73 65 74 90 82 69 65 58 70 52 58 68 57 58 54 50 50 49 41 35 36 40 44 47 51 54 60 65 68 67 65 64 59 55 50 49 50 47 40
28 37 23 30 54 54 61 63 66 63 74 79 78 66 65 64 62 56 53 47 39 34 31 31 34 38 44 48 51 55 59 63 64 64 61 57 54 54 50 48 45 39 40 40
Wind_Direction_850mb
34 60 41 355 82 156 219 262 291 286 325 357 7 310 41 22 32 10 9 7 3 359 355 356 351 339 331 329 325 320 311 301 294 285 276 262 265 258 251 245 239 238 238 239
61 60 317 318 49 343 264 301 308 303 335 331 342 304 291 38 30 21 7 4 3 1 2 359 353 350 341 333 330 326 322 315 308 296 279 257 251 260 260 253 245 242 242 241
85 162 309 36 27 0 303 231 310 291 326 333 327 298 332 7 22 9 10 5 1 0 357 359 356 353 348 341 334 332 329 322 315 304 287 272 251 248 253 248 243 244 244 243
78 353 344 1 37 359 306 167 311 301 328 322 62 289 295 325 350 4 356 355 354 355 360 3 359 356 355 347 341 333 329 325 318 312 299 288 274 243 243 248 246 242 242 246
235 17 340 40 349 332 258 317 288 288 212 329 12 2 268 325 348 348 344 345 349 353 355 0 3 360 0 355 347 344 335 331 321 312 308 299 286 261 238 247 243 243 242 243
83 300 302 278 314 281 306 327 356 116 111 36 164 51 284 13 319 329 336 346 347 350 355 1 4 6 4 3 356 350 347 340 334 324 314 307 296 280 249 239 241 241 242 239
336 139 327 358 335 329 346 12 358 357 9 247 24 351 250 233 289 308 328 339 345 351 354 356 359 4 6 7 3 358 353 350 347 342 332 324 314 296 262 235 243 241 238 235
50 339 17 349 119 222 3 56 117 259 313 301 321 225 257 188 344 341 340 347 352 351 356 356 358 358 5 7 9 4 359 355 355 355 347 333 326 321 269 244 246 243 241 236
64 274 328 220 59 113 310 52 190 90 10 315 274 290 297 190 333 356 357 350 350 352 353 354 357 360 0 6 11 11 6 4 2 2 1 351 346 345 328 265 239 238 247 242
174 351 196 58 118 48 112 188 116 39 28 299 279 279 246 290 337 332 337 334 346 351 350 353 357 359 2 4 9 12 14 12 10 7 11 10 359 359 359 327 244 220 226 232
125 105 285 27 202 176 94 110 61 119 148 205 303 264 221 197 220 281 299 335 339 347 348 350 354 0 5 6 8 13 14 16 16 15 11 17 13 10 14 14 356 237 218 218
197 143 264 227 299 354 154 188 145 130 231 223 217 265 238 204 193 230 326 328 332 339 343 346 350 358 4 9 11 15 17 18 20 21 20 19 24 19 19 23 18 21 297 212
197 288 335 358 3 4 184 198 177 116 117 212 156 258 226 208 282 335 307 317 322 326 335 339 344 352 356 359 7 12 16 19 19 21 23 23 27 27 24 22 24 26 32 263
159 175 197 207 197 128 207 217 198 155 168 213 226 269 272 261 286 288 292 305 311 313 318 325 332 338 342 351 355 3 10 11 15 19 22 25 27 29 29 27 28 31 25 14
154 231 203 257 273 264 257 237 213 218 227 213 266 249 266 273 276 285 285 287 298 309 310 309 317 327 333 338 346 352 2 7 10 10 15 19 24 27 30 31 31 33 36 36
102 267 122 279 260 259 262 256 232 234 244 245 257 273 273 277 276 265 259 270 286 301 305 302 304 311 320 327 336 345 349 356 3 8 11 12 11 19 24 29 29 31 36 40
160 158 47 265 342 307 285 244 201 191 216 220 231 241 267 273 259 246 256 271 283 295 300 296 296 304 309 317 324 333 340 345 352 359 7 9 12 12 11 14 23 27 30 31
153 126 128 274 353 298 255 215 184 206 228 214 252 253 245 262 275 278 267 278 280 297 296 294 290 295 299 304 311 321 328 334 339 348 354 0 6 10 12 11 6 12 20 25
200 148 299 241 215 303 278 116 153 168 261 239 230 252 258 272 289 287 287 261 282 303 304 296 283 288 293 299 303 309 318 324 331 335 342 349 354 358 4 6 6 6 5 7
202 197 174 92 215 238 248 250 188 141 288 221 197 229 244 162 305 274 301 265 290 307 298 291 280 284 285 293 301 306 313 318 319 326 332 337 341 345 348 353 355 354 356 0
146 201 217 220 258 280 251 224 159 86 262 184 198 222 232 189 265 297 294 270 297 306 300 291 272 278 278 284 292 301 309 313 316 318 320 324 329 332 334 336 337 338 340 343
169 170 195 173 177 274 200 132 195 223 296 254 251 261 288 298 296 295 294 288 300 303 299 292 273 272 272 278 287 296 302 308 310 312 316 317 319 323 325 326 325 326 326 325
251 196 190 187 207 248 193 214 234 262 269 279 281 279 298 297 295 300 299 297 299 303 298 297 281 266 266 274 283 293 300 303 307 310 312 315 317 316 315 317 319 319 319 315
256 220 238 108 226 245 253 259 265 273 276 289 289 288 294 290 301 301 304 304 304 296 295 292 277 264 266 274 285 293 297 301 304 307 310 312 313 314 313 311 311 314 315 312
194 149 238 257 271 275 269 265 268 275 281 285 279 294 279 299 302 302 300 300 299 296 292 286 271 266 270 280 288 293 297 300 303 306 309 310 312 314 314 313 312 311 313 312
197 238 238 255 256 261 277 281 280 277 280 282 284 281 280 292 295 298 293 295 295 292 287 279 274 276 281 287 293 296 299 301 304 306 309 311 312 314 317 317 313 311 310 308